This demonstration page uses our WeatherBlox Daily Observations layout. Learn more.

Left ArrowRight Arrow

39.51506, -84.39828

Hourly Observations for June 5, 2017

Temp ( °F °C ) Dew Point ( °F °C ) Humidity (%) Winds ( mph kmh ) Pressure ( in mb ) Visibility ( mi km ) Precip ( " mm )
12:15 am 00:15 Clear 71 21.7 62 16.6 73 73 N N/A 29.83 1010 10 16 N/A
12:35 am 00:35 Partly Cloudy 70 21.1 62 16.4 75 75 N N/A 29.83 1010 10 16 N/A
12:55 am 00:55 Mostly Cloudy 69 20.8 62 16.5 77 77 S 3 6 29.83 1010 10 16 N/A
1:15 am 01:15 Partly Cloudy 69 20.8 61 15.9 74 74 SW 5 7 29.80 1009 10 16 N/A
1:35 am 01:35 Mostly Cloudy 69 20.8 61 16 74 74 N N/A 29.80 1009 10 16 N/A
1:55 am 01:55 Partly Cloudy 74 23.5 61 16.2 64 64 N N/A 29.80 1009 10 16 N/A
2:15 am 02:15 Clear 72 22 60 15.8 68 68 S 6 9 29.80 1009 10 16 N/A
2:35 am 02:35 Clear 71 21.9 60 15.6 68 68 SW 6 9 29.80 1009 10 16 N/A
2:55 am 02:55 Clear 69 20.8 60 15.5 72 72 N N/A 29.80 1009 10 16 N/A
3:15 am 03:15 Clear 69 20.8 60 15.5 72 72 SW 3 6 29.77 1008 10 16 N/A
3:35 am 03:35 Clear 69 20.8 60 15.5 72 72 SW 3 6 29.77 1008 10 16 N/A
3:55 am 03:55 Clear 69 20.8 58 14.6 68 68 N N/A 29.77 1008 10 16 N/A
4:15 am 04:15 Clear 69 20.8 58 14.7 68 68 SSW 3 6 29.77 1008 10 16 N/A
4:35 am 04:35 Mostly Cloudy 69 20.8 60 15.6 72 72 SSW 5 7 29.77 1008 10 16 N/A
4:55 am 04:55 Partly Cloudy 69 20.8 60 15.7 73 73 SW 5 7 29.77 1008 10 16 N/A
5:15 am 05:15 Mostly Cloudy 69 20.8 61 16.1 75 75 WSW 3 6 29.77 1008 10 16 N/A
5:35 am 05:35 Cloudy 69 20.8 62 16.5 77 77 N N/A 29.77 1008 10 16 N/A
5:55 am 05:55 Mostly Cloudy 69 20.8 60 15.6 72 72 SSW 5 7 29.77 1008 10 16 N/A
6:15 am 06:15 Mostly Cloudy 69 20.8 61 15.9 74 74 SSW 3 6 29.80 1009 10 16 N/A
6:35 am 06:35 Mostly Cloudy 69 20.8 61 16.3 76 76 N N/A 29.80 1009 10 16 N/A
6:55 am 06:55 Mostly Cloudy 69 20.8 62 16.4 76 76 SSW 3 6 29.80 1009 10 16 N/A
7:15 am 07:15 Mostly Cloudy 69 20.8 62 16.5 77 77 N N/A 29.80 1009 10 16 N/A
7:35 am 07:35 Cloudy 71 21.6 62 16.7 74 74 SSW 3 6 29.80 1009 10 16 N/A
7:55 am 07:55 Mostly Cloudy 72 22.2 63 17.3 74 74 SSW 5 7 29.80 1009 10 16 N/A
8:15 am 08:15 Partly Cloudy 74 23.6 64 18 71 71 S 6 9 29.80 1009 10 16 N/A
8:35 am 08:35 Partly Cloudy 74 23.6 64 17.7 70 70 W 6 9 29.77 1008 10 16 N/A
8:55 am 08:55 Partly Cloudy 74 23.6 61 16 63 63 W 5 7 29.77 1008 10 16 N/A
9:15 am 09:15 Mostly Cloudy with Light Rain 74 23.6 62 16.8 66 66 N N/A 29.80 1009 10 16 N/A
9:35 am 09:35 Mostly Cloudy 74 23.6 62 16.9 66 66 N N/A 29.80 1009 10 16 N/A
9:55 am 09:55 Partly Cloudy 74 23.6 62 16.9 66 66 N N/A 29.80 1009 10 16 N/A
10:15 am 10:15 Partly Cloudy 74 23.6 61 16.2 63 63 WSW 3 6 29.80 1009 10 16 N/A
10:35 am 10:35 Mostly Cloudy 74 23.6 62 16.4 64 64 SW 3 6 29.80 1009 10 16 N/A
10:55 am 10:55 Partly Cloudy 77 24.9 63 17.3 63 63 SSW 3 6 29.80 1009 10 16 N/A
11:15 am 11:15 Sunny 77 25.1 64 17.5 63 63 S 3 6 29.77 1008 10 16 N/A
11:35 am 11:35 Sunny 77 25.1 63 17.1 61 61 S 5 7 29.77 1008 10 16 N/A
11:55 am 11:55 Partly Cloudy 77 25.2 62 16.8 60 60 WSW 7 11 29.77 1008 10 16 N/A
12:15 pm 12:15 Partly Cloudy 80 26.5 64 17.8 59 59 WSW 6 9 29.74 1007 10 16 N/A
12:35 pm 12:35 Mostly Cloudy 80 26.5 64 17.8 59 59 WSW 9 15 29.74 1007 10 16 N/A
12:55 pm 12:55 Partly Cloudy 80 26.5 64 17.6 58 58 W 7 11 29.74 1007 10 16 N/A
1:15 pm 13:15 Partly Cloudy 80 26.5 63 17.3 57 57 WSW 3 6 29.74 1007 10 16 N/A
1:35 pm 13:35 Mostly Cloudy 80 26.8 64 17.6 57 57 SW 6 9 29.74 1007 10 16 N/A
1:55 pm 13:55 Partly Cloudy 82 27.7 65 18.1 56 56 WSW 8 13 29.71 1006 10 16 N/A
2:15 pm 14:15 Partly Cloudy 82 28 64 17.7 54 54 WSW 7 11 29.71 1006 10 16 N/A
2:35 pm 14:35 Partly Cloudy 82 28 63 17.1 52 52 W 6 9 29.68 1005 10 16 N/A
2:55 pm 14:55 Mostly Cloudy with Light Rain 82 27.6 63 17 52 52 NNW 6 9 29.68 1005 10 16 N/A
3:15 pm 15:15 Mostly Cloudy with Light Rain 74 23.6 64 17.7 70 70 WSW 5 7 29.74 1007 7 11 N/A
3:35 pm 15:35 Partly Cloudy with Light Rain 73 22.6 64 17.7 74 74 N N/A 29.74 1007 10 16 N/A
3:55 pm 15:55 Sunny with Light Rain 74 23.6 61 16.1 63 63 N N/A 29.74 1007 10 16 N/A
4:15 pm 16:15 Sunny 75 24 59 15.1 58 58 SW 3 6 29.74 1007 10 16 N/A
4:35 pm 16:35 Sunny 74 23.6 59 15.2 59 59 S 5 7 29.71 1006 10 16 N/A
4:55 pm 16:55 Sunny 74 23.6 58 14.7 58 58 S 5 7 29.74 1007 10 16 N/A
5:15 pm 17:15 Sunny 74 23.6 60 15.5 61 61 SSW 3 6 29.74 1007 10 16 N/A
5:35 pm 17:35 Partly Cloudy 77 25.1 61 16 57 57 SSW 5 7 29.74 1007 10 16 N/A
5:55 pm 17:55 Partly Cloudy 77 25.1 61 15.9 57 57 S 5 7 29.71 1006 10 16 N/A
6:15 pm 18:15 Partly Cloudy 77 25.1 61 16.2 58 58 SW 6 9 29.74 1007 10 16 N/A
6:35 pm 18:35 Mostly Cloudy 77 25.1 61 16.3 58 58 SSW 6 9 29.71 1006 10 16 N/A
6:55 pm 18:55 Cloudy 77 25.1 64 17.7 64 64 NNE 5 7 29.74 1007 10 16 N/A
7:15 pm 19:15 Partly Cloudy 77 25.1 60 15.5 55 55 NE 8 13 29.74 1007 10 16 N/A
7:35 pm 19:35 Sunny 77 25.1 59 15 54 54 NE 6 9 29.74 1007 10 16 N/A
7:55 pm 19:55 Partly Cloudy 76 24.5 60 15.6 58 58 NNE 5 7 29.77 1008 10 16 N/A
8:15 pm 20:15 Partly Cloudy 74 23.6 60 15.8 62 62 ENE 6 9 29.77 1008 10 16 N/A
8:35 pm 20:35 Partly Cloudy 74 23.6 61 16.1 63 63 ENE 5 7 29.77 1008 10 16 N/A
8:55 pm 20:55 Mostly Cloudy 74 23.6 61 16.3 64 64 NE 5 7 29.80 1009 10 16 N/A
9:15 pm 21:15 Cloudy 74 23.3 61 16 64 64 NE 3 6 29.80 1009 10 16 N/A
9:35 pm 21:35 Cloudy 74 23.5 61 16.1 63 63 N N/A 29.80 1009 10 16 N/A
9:55 pm 21:55 Cloudy 72 22.1 60 15.6 67 67 N N/A 29.83 1010 10 16 N/A
10:15 pm 22:15 Mostly Cloudy 70 20.9 61 16.2 75 75 N N/A 29.83 1010 10 16 N/A
10:35 pm 22:35 Mostly Cloudy 69 20.8 63 17 79 79 N N/A 29.83 1010 10 16 N/A
10:55 pm 22:55 Partly Cloudy 69 20.8 63 17 79 79 NNE 3 6 29.83 1010 10 16 N/A
11:15 pm 23:15 Clear 69 20.8 58 14.3 66 66 NE 13 20 29.83 1010 10 16 N/A
11:35 pm 23:35 Clear 69 20.8 58 14.2 66 66 NE 8 13 29.85 1011 10 16 N/A
11:55 pm 23:55 Mostly Cloudy 69 20.8 57 13.9 65 65 NNE 13 20 29.85 1011 10 16 N/A

Powered by AerisWeather